Location: East Guldeford
(50.9500°N, 0.7500°E)
Time: 08:42:33
(UTC+00:00)

USA 306 - Pass Details

Date: 12 May 2021
Orbit: 565 x 575 km, 54.0° (Epoch: 11 May)

Event Time Altitude Azimuth Distance (km) Brightness Sun altitude
Rises 20:40:53 0° 293° (WNW) 2,772 7.9 -8.9°
Reaches altitude 10° 20:43:08 10° 290° (WNW) 1,874 6.7 -9.1°
Maximum altitude 20:47:22 68° 208° (SSW) 618 3.0 -9.6°
Enters shadow 20:51:02 14° 127° (SE) 1,649 4.6 -10.0°
